When you browse on this site, cookies collect data to enhance your experience and personalize the content and advertising you see.
Visit our Privacy Policy to learn more. By continuing to use the site, you agree to this use of cookies and data.
  • In Lithuania
  • List of Countries
  • For 7 days
  • Water Temperature
  • Weather Map
  • Weather Widgets
  • user-avatar
    Login

    Hourly Weather Quebec

    Today, 18 February, Tuesday

    Time Temperature Precipitation Wind Pressure Humidity
    00:00 -31°C° 0 mm 3 mps 698 mmHg 98%
    01:00 -31°C° 0 mm 3 mps 699 mmHg 98%
    02:00 -30°C° 0 mm 3 mps 698 mmHg 98%
    03:00 -29°C° 0 mm 3 mps 698 mmHg 97%
    04:00 -29°C° 0 mm 3 mps 698 mmHg 97%
    05:00 -29°C° 0 mm 4 mps 697 mmHg 97%
    06:00 -29°C° 0 mm 4 mps 697 mmHg 96%
    07:00 -27°C° 0 mm 4 mps 697 mmHg 96%
    08:00 -27°C° 0 mm 5 mps 696 mmHg 94%
    09:00 -25°C° 0 mm 5 mps 696 mmHg 92%
    10:00 -24°C° 0 mm 6 mps 696 mmHg 90%
    11:00 -22°C° 0 mm 6 mps 695 mmHg 88%
    12:00 -21°C° 0 mm 6 mps 694 mmHg 86%
    13:00 -18°C° 0 mm 6 mps 694 mmHg 84%
    14:00 -17°C° 0 mm 6 mps 693 mmHg 84%
    15:00 -17°C° 0 mm 6 mps 692 mmHg 84%
    16:00 -16°C° 0 mm 6 mps 691 mmHg 84%
    17:00 -16°C° 0.2 mm 6 mps 690 mmHg 87%
    18:00 -17°C° 0.2 mm 6 mps 689 mmHg 90%
    19:00 -17°C° 0.2 mm 6 mps 688 mmHg 93%
    20:00 -17°C° 0.4 mm 6 mps 687 mmHg 93%
    21:00 -17°C° 0.4 mm 5 mps 686 mmHg 93%
    22:00 -17°C° 0.4 mm 5 mps 684 mmHg 94%
    23:00 -16°C° 0.3 mm 4 mps 684 mmHg 94%

    Tomorrow, 19 February, Wednesday

    Time Temperature Precipitation Wind Pressure Humidity
    00:00 -15°C° 0.3 mm 3 mps 683 mmHg 94%
    01:00 -15°C° 0.3 mm 3 mps 682 mmHg 94%
    02:00 -15°C° 0.1 mm 2 mps 682 mmHg 95%
    03:00 -15°C° 0.1 mm 2 mps 682 mmHg 95%
    04:00 -16°C° 0.1 mm 2 mps 682 mmHg 96%
    05:00 -18°C° 0.2 mm 4 mps 682 mmHg 95%
    06:00 -20°C° 0.2 mm 5 mps 683 mmHg 93%
    07:00 -23°C° 0.2 mm 7 mps 684 mmHg 92%
    08:00 -25°C° 0.1 mm 7 mps 684 mmHg 93%
    09:00 -29°C° 0.1 mm 8 mps 685 mmHg 93%
    10:00 -33°C° 0.1 mm 8 mps 685 mmHg 94%
    11:00 -33°C° 0.1 mm 8 mps 686 mmHg 93%
    12:00 -34°C° 0.1 mm 8 mps 687 mmHg 93%
    13:00 -35°C° 0.1 mm 8 mps 688 mmHg 93%
    14:00 -36°C° 0 mm 8 mps 689 mmHg 92%
    15:00 -38°C° 0 mm 8 mps 689 mmHg 92%
    16:00 -39°C° 0 mm 8 mps 690 mmHg 91%
    17:00 -38°C° 0 mm 7 mps 690 mmHg 92%
    18:00 -39°C° 0 mm 7 mps 691 mmHg 93%
    19:00 -41°C° 0 mm 7 mps 691 mmHg 94%
    20:00 -41°C° 0 mm 6 mps 692 mmHg 94%
    21:00 -42°C° 0 mm 6 mps 692 mmHg 94%
    22:00 -43°C° 0 mm 6 mps 692 mmHg 95%
    23:00 -45°C° 0 mm 6 mps 692 mmHg 96%

    Day after tomorrow, 20 February, Thursday

    Time Temperature Precipitation Wind Pressure Humidity
    00:00 -44°C° 0 mm 5 mps 692 mmHg 97%
    01:00 -45°C° 0 mm 5 mps 692 mmHg 97%
    02:00 -46°C° 0 mm 5 mps 692 mmHg 97%
    03:00 -45°C° 0 mm 4 mps 692 mmHg 98%
    04:00 -45°C° 0 mm 4 mps 693 mmHg 98%
    05:00 -45°C° 0 mm 4 mps 693 mmHg 97%
    06:00 -44°C° 0 mm 4 mps 693 mmHg 97%
    07:00 -44°C° 0 mm 4 mps 693 mmHg 96%
    08:00 -41°C° 0 mm 4 mps 693 mmHg 95%
    09:00 -41°C° 0 mm 5 mps 693 mmHg 94%
    10:00 -39°C° 0 mm 5 mps 693 mmHg 94%
    11:00 -38°C° 0 mm 5 mps 693 mmHg 94%
    12:00 -37°C° 0 mm 5 mps 693 mmHg 94%
    13:00 -35°C° 0 mm 5 mps 693 mmHg 94%
    14:00 -34°C° 0 mm 5 mps 693 mmHg 94%
    15:00 -34°C° 0 mm 5 mps 693 mmHg 94%
    16:00 -33°C° 0 mm 5 mps 693 mmHg 94%
    17:00 -34°C° 0 mm 5 mps 693 mmHg 95%
    18:00 -33°C° 0 mm 4 mps 693 mmHg 96%
    19:00 -33°C° 0 mm 4 mps 693 mmHg 97%
    20:00 -33°C° 0 mm 4 mps 693 mmHg 97%
    21:00 -32°C° 0 mm 4 mps 693 mmHg 97%
    22:00 -31°C° 0 mm 4 mps 693 mmHg 97%
    23:00 -32°C° 0 mm 4 mps 692 mmHg 98%

    21 February, Friday

    Time Temperature Precipitation Wind Pressure Humidity
    00:00 -32°C° 0 mm 3 mps 692 mmHg 98%
    01:00 -32°C° 0 mm 3 mps 691 mmHg 99%
    08:00 -29°C° 0 mm 4 mps 689 mmHg 96%
    09:00 -27°C° 0 mm 5 mps 689 mmHg 94%
    10:00 -26°C° 0 mm 6 mps 689 mmHg 93%
    11:00 -24°C° 0.1 mm 6 mps 688 mmHg 92%
    12:00 -23°C° 0.1 mm 7 mps 687 mmHg 92%
    13:00 -21°C° 0.1 mm 7 mps 686 mmHg 91%
    14:00 -20°C° 0.1 mm 7 mps 686 mmHg 90%
    15:00 -19°C° 0.1 mm 7 mps 685 mmHg 90%
    16:00 -18°C° 0.1 mm 7 mps 685 mmHg 89%
    17:00 -18°C° 0.1 mm 7 mps 685 mmHg 90%
    18:00 -17°C° 0.1 mm 6 mps 684 mmHg 91%
    19:00 -17°C° 0.1 mm 6 mps 684 mmHg 93%
    20:00 -15°C° 0.3 mm 5 mps 684 mmHg 93%
    21:00 -15°C° 0.3 mm 5 mps 684 mmHg 94%
    22:00 -14°C° 0.3 mm 4 mps 684 mmHg 94%
    23:00 -15°C° 0.1 mm 4 mps 684 mmHg 94%

    22 February, Saturday

    Time Temperature Precipitation Wind Pressure Humidity
    00:00 -15°C° 0.1 mm 4 mps 684 mmHg 94%
    01:00 -16°C° 0.1 mm 4 mps 684 mmHg 94%
    02:00 -16°C° 0.1 mm 4 mps 684 mmHg 94%
    03:00 -16°C° 0.1 mm 4 mps 685 mmHg 94%
    04:00 -17°C° 0.1 mm 5 mps 685 mmHg 94%
    05:00 -17°C° 0.1 mm 5 mps 686 mmHg 94%
    06:00 -15°C° 0.1 mm 5 mps 686 mmHg 93%
    07:00 -15°C° 0.1 mm 5 mps 686 mmHg 93%
    08:00 -14°C° 0 mm 5 mps 687 mmHg 92%
    09:00 -14°C° 0 mm 6 mps 687 mmHg 91%
    10:00 -13°C° 0 mm 7 mps 687 mmHg 90%
    11:00 -12°C° 0.1 mm 7 mps 688 mmHg 90%
    12:00 -12°C° 0.1 mm 7 mps 688 mmHg 90%
    13:00 -10°C° 0.1 mm 6 mps 688 mmHg 90%
    14:00 -10°C° 0.1 mm 6 mps 688 mmHg 90%
    15:00 -10°C° 0.1 mm 5 mps 688 mmHg 91%
    16:00 -10°C° 0.1 mm 5 mps 687 mmHg 91%
    17:00 -10°C° 0 mm 4 mps 687 mmHg 92%
    18:00 -10°C° 0 mm 3 mps 687 mmHg 94%
    19:00 -12°C° 0 mm 2 mps 687 mmHg 95%
    20:00 -12°C° 0 mm 3 mps 687 mmHg 95%
    21:00 -12°C° 0 mm 3 mps 687 mmHg 95%
    22:00 -12°C° 0 mm 3 mps 687 mmHg 95%
    23:00 -12°C° 0.1 mm 3 mps 686 mmHg 95%

    23 February, Sunday

    Time Temperature Precipitation Wind Pressure Humidity
    00:00 -10°C° 0.1 mm 2 mps 686 mmHg 95%
    01:00 -10°C° 0.1 mm 2 mps 686 mmHg 95%
    02:00 -10°C° 0.1 mm 3 mps 686 mmHg 95%
    03:00 -10°C° 0.1 mm 3 mps 685 mmHg 95%
    04:00 -10°C° 0.1 mm 4 mps 685 mmHg 95%
    05:00 -10°C° 0.1 mm 4 mps 685 mmHg 94%
    06:00 -10°C° 0.1 mm 4 mps 685 mmHg 94%
    07:00 -10°C° 0.1 mm 4 mps 684 mmHg 94%
    08:00 -10°C° 0.1 mm 4 mps 684 mmHg 93%
    09:00 -9°C° 0.1 mm 4 mps 684 mmHg 93%
    10:00 -8°C° 0.1 mm 5 mps 683 mmHg 93%
    11:00 -8°C° 0.4 mm 5 mps 683 mmHg 94%
    12:00 -7°C° 0.4 mm 5 mps 683 mmHg 94%
    13:00 -7°C° 0.4 mm 5 mps 683 mmHg 94%
    14:00 -7°C° 0.3 mm 5 mps 683 mmHg 93%
    15:00 -7°C° 0.3 mm 4 mps 683 mmHg 93%
    16:00 -7°C° 0.3 mm 4 mps 683 mmHg 92%
    17:00 -8°C° 0.2 mm 4 mps 683 mmHg 93%
    18:00 -7°C° 0.2 mm 3 mps 683 mmHg 94%
    19:00 -8°C° 0.2 mm 3 mps 684 mmHg 95%
    20:00 -8°C° 0.1 mm 3 mps 684 mmHg 95%
    21:00 -9°C° 0.1 mm 3 mps 684 mmHg 95%
    22:00 -8°C° 0.1 mm 2 mps 685 mmHg 95%
    23:00 -10°C° 0.1 mm 3 mps 685 mmHg 95%
    Show more